Regional Weather Roundup
Issued by NWS Charleston, SC

Current Version | Previous Version | Text Only | Print | Product List | Glossary Off
Versions: 1 2 3 4 5 6 7 8 9 10 11 12 13 14 15 16 17 18 19 20 21 22 23 24 25 26 27 28 29 30 31 32 33 34 35 36 37 38 39 40 41 42 43 44 45 46 47 48 49 50

000
ASUS42 KCHS 232127
RWRCHS

Regional Weather Roundup
National Weather Service Charleston SC
400 PM EST TUE JAN 23 2018

NOTE: "fair" indicates few or no clouds below 12,000 feet with no
significant weather and/or obstructions to visibility.

Not all stations are quality controlled. Use data with caution,
especially dewpoint observations.

SCZ027-030-031-034>040-042>050-232200-
...Southeast South Carolina...

CITY           SKY/WX    TMP DP  RH WIND       PRES   REMARKS
N Charleston   FAIR      74  46  36 W17G25    29.87R
Waterfront Prk   N/A     69  58  68 SW7G15    29.71R
Mount Pleasant FAIR      73  43  33 W15       29.87R
Johns Island   FAIR      73  45  35 W15G22    29.88R
Pinopolis        N/A     66  46  48 SW15G24   29.77R
Moncks Corner  FAIR      70  32  24 SW9G23    29.86R
Summerville    FAIR      72  36  26 SW9G17    29.88R
Beaufort MCAS  FAIR      73  38  27 W21G28    29.90R
Beaufort Arpt  FAIR      72  41  33 W12G22    29.90R
Hilton Head Is SUNNY     72  43  35 W20G25    29.91R
Walterboro     FAIR      70  32  24 W18G26    29.89R
Allendale      FAIR      68  27  21 W8G20     29.90R

...Southern Midlands and Pee Dee...

CITY           SKY/WX    TMP DP  RH WIND       PRES   REMARKS
Georgetown     FAIR      72  45  37 W20G25    29.85R
Kingstree      FAIR      70  32  24 SW13G22   29.84R
Orangeburg     FAIR      68  28  22 W20G26    29.87R
Barnwell         N/A     68  32  26 SW13G20   29.91R
Aiken          FAIR      61  32  33 W15G21    29.95R
Manning        FAIR      70  10  10 MISG      29.87R
Columbia       FAIR      65  33  30 W20G30    29.87R
Sumter         FAIR      68  26  20 W22G30    29.83R
Florence       FAIR      72  33  24 SW17G29   29.80R
Myrtle Beach   FAIR      74  51  44 W18G30    29.83R
N Myrtle Beach FAIR      59  53  80 SW16      29.81R

$$

GAZ063-065-086>088-099>101-113>116-118-119-134>141-150-232200-
...Southeast Georgia...

CITY           SKY/WX    TMP DP  RH WIND       PRES   REMARKS
Savannah Arpt  PTSUNNY   73  35  25 W18G28    29.92R
Hunter AAF     FAIR      74  38  27 W17       29.89R
Fort Stewart   FAIR      72  33  24 W15G22    29.92R
Statesboro     FAIR      68  18  14 W14G25    29.94R
Sylvania       FAIR      69  32  25 W14G21    29.94R
Claxton        FAIR      71  29  21 SW14G22   29.95R

...CSRA, Central and far Southeast Georgia...

CITY           SKY/WX    TMP DP  RH WIND       PRES   REMARKS
Thomson        FAIR      60  31  33 N10G18    30.00R
Augusta-Bush   FAIR      65  31  28 NW14G21   29.91R
Augusta-Daniel FAIR      64  31  28 VRB7G18   29.93R
Swainsboro     FAIR      64  32  29 W8        29.96R
Vidalia        FAIR      68  32  26 W12       29.97R
Eastman        FAIR      67 -10   4 W14       30.02R
Hazlehurst     FAIR      69   5   8 W7        29.97R
Alma           FAIR      70  29  21 W15       29.96S
Waycross       FAIR      73  17  12 W8G20     29.98R
Jesup          NOT AVBL
Baxley         FAIR      66  27  22 W13G20    29.97R
Brunswick      FAIR      73  39  29 W16G31    29.96S
Saint Simons   FAIR      73  55  53 W17G24    29.95R

$$

SCZ027-028-034-036>038-045-046-048>050-GAZ119-141-232200-
...Lake and Supplemental Coastal Observations...

STATION/POSITION TIME  TEMP    WIND        PRES    WAVE   SWELL
                       AIR SEA DIR/SP/G            HT/PER HT/PER/DIR
                 (UTC) (F)     (DEG/KT/KT) (MB)    (FT/S) (FT/S/D)
Winyah Bay       2030   73     220/  9     1010.0S
Lake Murray      2120   60     270/ 13/ 19 1011.2
ACE Basin NERRS  2045   72     240/  7     1012.0S
Fort Pulaski     2100   72 48  270/ 10/ 14 1013.1
Sapelo Island    2100   72     270/ 15     1014.0

$$

ANZ835-935-AMZ111-154-330-350-352-354-370-450-454-472-232200-
...C-MAN and Buoy Observations...

STATION/POSITION TIME  TEMP    WIND        PRES    WAVE   SWELL
                       AIR SEA DIR/SP/G            HT/PER HT/PER/DIR
                 (UTC) (F)     (DEG/KT/KT) (MB)    (FT/S) (FT/S/D)
Buoy 41004       2110   67 69  220/ 21/ 25 1011.9
Buoy 41008       2050   55 51  210/  8/  8 1013.8R   3/ 6   2/120/ 6
Folly Beach CMAN 2100   55     230/ 10/ 13 1012.7R
Capers Nearshore 2108   51 54  230/ 16/ 21 1011.2R
Fripp Nearshore  2108   54 49  260/ 10/ 14 1012.0F


STATION/POSITION TIME  TEMP    WIND        PRES    WAVE   SWELL
                       AIR SEA DIR/SP/G            HT/PER HT/PER/DIR
                 (UTC) (F)     (DEG/KT/KT) (MB)    (FT/S) (FT/S/D)
5E St. Marys GA  2100      51                N/A     2/ 6
Frying Pan Buoy  2110   66 63  220/ 19/ 23 1010.5
Buoy 41025       2110   68 70  230/ 23/ 29 1008.6
Cape Lookout NC  2100          220/ 15/ 19 1008.7F
Buoy 41002       2050   72 70  190/ 21/ 23 1014.6R   7/ 6   2/120/10
Buoy 41010       NOT AVBL
St Augustine FL  2100   73 53  240/  8/ 12 1015.6R


$$




USA.gov is the U.S. government's official web portal to all federal, state and local government web resources and services.